Wind_Speed
2 3 5 7 8 9 9 9 9 10 10 11 11 12 13 14 14 15 16 16 16 17 17 17 17 17 17 17 17 17 17 17 17 17 17 17 18 17 17 16 15 15
4 6 8 9 9 10 10 10 11 11 12 12 13 14 14 14 15 16 16 16 17 17 17 17 17 17 18 17 17 17 17 18 18 18 18 19 19 19 19 18 17 16
7 9 10 10 10 11 12 12 13 13 13 14 14 15 15 15 16 16 16 17 17 17 18 18 18 18 18 18 18 18 18 19 19 19 19 20 20 21 22 21 20 18
9 11 12 12 12 13 14 14 14 15 15 15 15 15 15 16 16 16 17 17 18 18 18 18 19 19 19 19 19 19 20 21 20 21 22 22 22 23 23 23 23 21
12 13 13 14 14 15 15 15 16 16 16 16 16 15 15 15 16 16 17 17 18 18 18 19 19 19 19 20 21 21 22 22 22 23 24 24 24 24 25 24 24 23
14 16 16 16 16 16 16 16 16 16 16 16 15 15 15 15 16 16 17 17 18 18 19 20 20 21 21 22 23 23 23 24 24 25 25 25 26 26 26 26 25 24
16 17 17 17 17 16 16 17 16 16 16 16 15 16 16 16 16 16 17 18 18 20 20 21 21 22 23 23 24 24 24 25 25 26 25 25 26 26 26 26 26 24
18 19 18 17 17 17 17 17 16 16 16 16 16 16 16 16 17 17 18 19 20 21 21 22 22 23 23 24 24 24 25 25 25 25 25 25 25 25 26 26 25 24
19 19 18 17 17 17 17 17 17 17 17 16 16 17 17 17 18 19 20 20 21 22 22 22 23 23 24 24 24 24 24 24 24 24 25 25 25 25 26 25 24 23
19 19 18 17 17 17 17 17 17 17 17 17 17 18 19 19 20 20 21 21 22 22 22 23 23 23 24 23 23 24 24 23 24 24 24 24 25 25 25 24 22 21
19 19 18 18 18 18 17 17 17 17 17 18 19 19 20 20 21 21 22 22 22 22 22 23 23 23 23 23 23 24 24 24 24 24 23 24 24 24 24 23 21 19
19 18 18 18 18 17 17 17 17 18 19 20 20 20 21 21 21 22 22 22 22 22 22 22 23 23 23 23 24 24 24 23 23 23 22 22 23 23 22 21 20 20
19 19 18 18 17 17 17 18 18 19 20 20 20 20 21 21 21 22 22 21 21 21 22 22 23 23 23 24 25 24 24 22 21 21 21 21 22 21 19 18 18 19
19 19 18 17 17 17 18 18 19 20 20 19 19 20 21 22 22 22 21 21 22 22 22 22 23 24 24 25 24 24 24 21 20 21 21 21 20 18 17 17 18 18
19 18 18 18 18 18 18 19 19 19 19 19 20 21 22 22 22 22 21 22 22 22 22 23 23 24 24 24 24 24 23 21 19 20 20 18 18 18 17 18 19 18
19 18 18 18 18 18 18 18 18 19 19 20 21 22 22 22 22 22 22 22 23 23 23 23 23 23 22 22 23 23 22 21 19 18 17 16 17 18 18 17 18 18
18 18 17 17 17 17 17 17 18 19 20 20 21 22 22 22 22 22 23 23 23 23 24 23 23 22 21 21 22 22 21 21 19 17 16 16 18 18 17 18 18 18
18 18 17 17 17 16 17 17 18 19 20 21 22 22 22 22 22 23 23 23 24 24 24 24 23 22 21 21 21 21 21 20 18 17 16 16 17 17 17 18 18 20
18 18 17 16 16 16 16 17 18 19 20 21 22 22 22 22 23 23 23 24 24 24 24 24 23 23 21 21 21 20 20 20 17 15 15 16 17 17 18 18 19 20
17 17 16 16 15 15 16 17 18 19 20 21 21 21 22 22 23 23 24 24 24 24 24 24 24 23 22 21 21 20 20 21 17 15 15 17 17 18 19 19 20 20
16 16 16 15 15 15 16 17 18 19 20 21 21 21 22 22 23 24 24 24 24 24 25 24 24 23 22 22 22 22 21 21 18 16 17 17 17 19 19 20 20 20
16 16 16 15 15 15 16 17 18 19 20 20 20 21 21 22 23 24 24 24 25 25 24 23 23 23 23 23 23 23 22 20 17 17 17 18 18 19 19 20 21 22
16 16 15 15 14 14 15 17 17 18 19 19 19 20 21 22 23 23 24 24 25 25 24 22 22 23 23 23 24 24 22 20 18 17 17 18 19 18 19 20 21 22
16 16 15 15 14 14 15 16 16 17 18 18 19 19 20 21 22 22 23 24 24 25 25 22 21 22 23 22 23 24 22 19 18 18 16 17 19 18 19 20 20 23
16 16 15 14 14 14 14 15 15 15 16 17 16 16 17 19 20 21 22 24 25 26 26 24 23 22 23 23 22 24 23 19 18 20 17 16 18 19 19 20 20 22
17 16 15 14 13 14 14 13 14 14 15 15 14 13 15 17 18 19 21 22 24 24 25 25 25 24 24 24 23 24 25 21 20 23 20 15 18 20 20 20 21 21
Wind_Direction
135 133 123 118 120 117 110 101 92 83 77 70 62 54 49 44 41 38 36 35 33 32 29 28 26 23 22 20 17 18 16 13 12 10 9 10 7 4 2 1 1 358
131 125 117 117 115 106 96 89 85 80 75 69 63 57 53 49 46 42 40 38 35 32 29 27 25 22 21 19 18 20 18 17 17 14 14 15 12 8 5 2 1 359
124 118 114 112 105 96 91 87 83 80 75 69 65 60 55 51 47 44 40 38 35 33 30 28 27 26 25 24 24 24 24 24 22 21 22 20 17 14 12 10 7 4
115 111 108 102 96 92 90 87 83 79 74 70 66 61 56 51 47 43 40 39 38 36 34 33 32 31 29 30 30 29 29 29 26 26 28 24 21 19 18 17 14 11
112 107 103 98 95 93 91 88 83 79 74 71 67 61 56 52 48 45 43 42 41 38 37 35 34 32 32 31 31 30 29 28 26 27 28 25 23 21 19 19 17 15
109 105 102 99 97 94 91 88 83 80 76 71 67 63 58 54 51 49 47 44 42 40 37 36 34 32 31 30 30 29 28 26 26 26 25 23 23 21 18 17 17 16
107 106 104 102 98 95 92 87 84 80 76 72 68 64 61 58 54 52 50 47 45 42 39 37 35 32 32 32 30 28 27 26 26 25 23 22 21 19 16 16 16 15
108 108 106 103 99 94 90 87 84 79 76 73 69 66 64 61 58 55 52 49 47 44 41 39 37 34 33 32 30 28 27 25 24 23 22 21 20 17 16 15 13 12
111 108 106 102 97 93 89 86 83 79 76 73 70 69 66 62 60 57 53 51 48 46 43 41 38 36 34 32 29 28 27 25 23 22 21 21 20 17 16 14 12 10
112 109 105 100 96 93 90 87 84 80 77 74 71 70 66 63 60 57 53 50 48 46 43 41 39 36 34 32 29 27 26 25 23 22 21 20 19 17 14 12 11 7
112 108 103 100 97 94 90 87 83 80 77 74 71 68 65 62 58 56 53 49 46 44 41 40 38 35 33 31 28 26 25 23 22 20 19 18 17 15 12 10 8 4
111 107 104 101 97 94 90 86 83 80 77 73 70 67 64 61 57 55 52 48 45 42 39 38 35 33 31 29 27 25 23 21 18 17 16 15 15 13 10 8 5 1
112 108 106 101 97 93 89 86 83 80 76 73 70 67 64 61 57 54 51 47 45 41 38 35 32 30 29 27 26 23 21 20 16 15 16 15 14 10 7 4 1 360
113 109 105 100 95 92 89 86 83 80 77 74 70 67 64 60 56 53 51 48 44 41 39 34 30 27 25 25 24 20 19 20 17 15 16 16 13 9 4 2 1 359
114 109 104 99 95 92 89 87 84 81 77 74 70 66 63 60 57 53 50 47 44 41 38 34 30 27 22 20 21 19 18 20 18 15 15 13 9 6 3 2 1 359
114 108 103 100 97 94 92 88 85 81 77 72 69 66 62 60 56 53 49 46 43 40 36 34 30 27 23 18 18 17 16 21 21 16 14 10 5 4 3 0 359 358
115 110 107 103 100 97 94 90 85 80 76 72 68 64 61 58 54 50 47 44 42 39 36 34 30 26 23 19 18 16 14 20 23 18 15 11 5 3 2 359 359 358
118 114 111 107 104 100 96 90 85 80 75 71 67 63 59 55 52 49 46 44 42 39 35 33 29 25 22 20 19 16 14 20 24 19 16 11 5 4 2 359 359 358
122 119 115 111 108 103 97 91 86 81 75 70 66 62 57 54 51 48 46 43 40 37 34 31 27 24 21 20 20 15 16 24 24 17 15 11 6 5 3 360 359 357
124 122 119 115 111 105 98 92 85 80 75 69 65 61 56 53 50 47 45 43 39 37 34 29 25 22 19 20 20 16 20 27 23 14 15 12 7 6 3 0 358 356
128 127 123 119 113 106 98 91 84 79 74 69 64 60 56 52 49 47 45 42 38 37 34 28 24 21 18 19 19 18 24 29 22 14 15 12 8 7 3 359 358 357
134 130 126 121 114 105 97 89 83 78 73 68 63 59 55 52 49 46 44 42 38 37 36 30 24 20 18 18 19 20 26 28 20 13 13 9 7 7 4 360 356 355
137 133 128 123 115 106 96 88 81 77 73 70 64 60 56 52 49 46 43 42 39 37 38 34 25 20 18 18 18 20 26 27 19 13 11 8 7 6 4 1 354 351
138 135 130 124 117 108 97 89 83 77 73 70 64 60 57 53 50 46 43 41 39 37 38 37 28 21 18 18 18 18 23 26 17 13 13 8 6 4 1 359 354 355
139 135 130 125 119 110 100 91 84 77 73 71 66 60 57 54 51 48 44 42 40 37 38 38 34 27 22 21 21 20 24 26 16 13 15 8 5 4 358 355 356 357
140 135 130 127 120 111 103 94 86 79 75 73 69 65 60 55 52 49 44 43 41 38 37 37 36 34 29 28 28 26 27 31 22 15 15 10 4 3 357 354 358 357
Height
1561 1561 1561 1561 1561 1562 1561 1561 1561 1560 1560 1559 1559 1558 1557 1557 1557 1556 1556 1555 1554 1554 1553 1552 1551 1550 1549 1548 1547 1545 1544 1543 1542 1540 1539 1538 1537 1535 1534 1532 1530 1529
1561 1561 1561 1561 1561 1561 1561 1560 1560 1560 1559 1559 1558 1558 1557 1557 1557 1556 1556 1555 1554 1554 1553 1552 1551 1550 1549 1548 1546 1545 1544 1543 1541 1540 1539 1537 1536 1535 1533 1531 1529 1528
1560 1560 1560 1560 1560 1560 1560 1560 1560 1560 1559 1559 1558 1558 1557 1557 1557 1556 1556 1555 1554 1554 1553 1552 1551 1550 1549 1547 1546 1545 1544 1542 1541 1540 1538 1537 1536 1534 1533 1531 1529 1528
1559 1560 1560 1560 1560 1560 1560 1560 1560 1560 1559 1559 1558 1558 1558 1557 1557 1557 1556 1555 1554 1554 1553 1552 1551 1550 1549 1547 1546 1545 1544 1543 1541 1540 1538 1537 1536 1534 1533 1531 1530 1528
1559 1559 1560 1560 1560 1560 1560 1560 1560 1560 1559 1559 1559 1559 1558 1558 1558 1557 1556 1556 1555 1554 1553 1552 1551 1550 1549 1547 1546 1545 1543 1542 1541 1539 1538 1537 1536 1534 1532 1531 1529 1528
1559 1559 1560 1560 1560 1560 1560 1560 1560 1560 1560 1560 1559 1559 1559 1558 1558 1557 1557 1556 1555 1554 1553 1552 1551 1550 1549 1547 1546 1545 1543 1542 1540 1539 1538 1537 1535 1534 1532 1531 1529 1527
1559 1559 1560 1560 1560 1561 1561 1561 1561 1561 1561 1561 1560 1560 1559 1559 1559 1558 1557 1556 1555 1554 1553 1552 1551 1550 1549 1547 1546 1545 1543 1542 1540 1539 1538 1537 1535 1534 1532 1530 1528 1527
1560 1560 1561 1561 1561 1561 1561 1561 1562 1562 1562 1561 1561 1560 1560 1560 1559 1558 1558 1557 1556 1555 1554 1553 1551 1550 1549 1547 1546 1545 1543 1542 1540 1539 1538 1536 1535 1534 1532 1530 1528 1526
1560 1561 1561 1562 1561 1562 1562 1562 1563 1562 1562 1562 1561 1561 1561 1560 1559 1559 1558 1557 1556 1555 1554 1553 1552 1551 1549 1548 1547 1545 1543 1542 1541 1539 1538 1536 1535 1533 1531 1530 1528 1526
1561 1561 1562 1562 1562 1563 1563 1563 1563 1563 1563 1563 1562 1562 1561 1561 1560 1559 1559 1557 1557 1556 1555 1554 1552 1551 1550 1548 1547 1545 1543 1542 1541 1539 1538 1536 1535 1533 1531 1529 1527 1526
1562 1562 1563 1563 1563 1564 1564 1564 1564 1564 1564 1563 1563 1563 1562 1561 1561 1560 1559 1558 1557 1556 1555 1554 1553 1551 1550 1549 1547 1545 1543 1542 1540 1539 1537 1536 1534 1533 1531 1529 1527 1526
1562 1563 1564 1564 1565 1565 1565 1565 1565 1565 1565 1564 1564 1563 1562 1562 1561 1560 1559 1558 1557 1556 1555 1554 1553 1552 1550 1548 1546 1545 1543 1541 1540 1538 1537 1536 1534 1533 1531 1529 1527 1526
1564 1565 1565 1566 1566 1566 1566 1566 1566 1566 1565 1565 1565 1564 1563 1562 1561 1561 1560 1559 1558 1557 1555 1554 1553 1551 1550 1548 1546 1544 1542 1541 1540 1539 1537 1536 1534 1533 1531 1529 1528 1526
1565 1566 1566 1567 1567 1567 1567 1567 1567 1567 1566 1566 1565 1564 1564 1563 1562 1561 1560 1559 1558 1557 1556 1554 1553 1551 1549 1547 1546 1544 1542 1541 1540 1539 1537 1536 1535 1533 1532 1530 1527 1526
1566 1567 1568 1568 1568 1568 1568 1568 1568 1567 1567 1567 1566 1565 1564 1563 1563 1562 1561 1560 1559 1557 1556 1555 1552 1550 1548 1547 1545 1544 1542 1541 1540 1539 1537 1536 1535 1533 1531 1529 1527 1525
1567 1568 1569 1569 1569 1569 1569 1569 1569 1568 1567 1567 1566 1565 1565 1564 1563 1563 1561 1560 1559 1558 1556 1555 1553 1551 1549 1548 1546 1544 1542 1541 1540 1539 1537 1536 1535 1533 1531 1529 1527 1525
1568 1569 1569 1570 1570 1570 1570 1570 1569 1568 1568 1568 1567 1566 1565 1564 1564 1563 1561 1560 1559 1558 1557 1555 1553 1552 1550 1548 1546 1544 1542 1541 1540 1539 1538 1537 1535 1533 1531 1529 1526 1524
1568 1569 1570 1571 1571 1571 1570 1570 1570 1569 1568 1568 1567 1566 1565 1565 1564 1563 1562 1561 1559 1558 1557 1555 1554 1552 1550 1548 1546 1544 1542 1541 1540 1539 1538 1537 1536 1533 1531 1528 1525 1523
1568 1569 1571 1571 1571 1571 1571 1571 1570 1569 1569 1568 1567 1567 1566 1565 1565 1563 1562 1561 1560 1559 1557 1555 1554 1552 1550 1548 1546 1545 1543 1541 1540 1540 1538 1538 1536 1533 1531 1529 1525 1522
1568 1570 1571 1571 1571 1571 1571 1571 1571 1570 1569 1568 1568 1567 1567 1566 1565 1564 1563 1561 1560 1559 1557 1556 1554 1552 1550 1548 1547 1545 1543 1541 1540 1540 1538 1538 1536 1534 1532 1530 1527 1523
1569 1570 1572 1572 1572 1572 1571 1571 1571 1570 1569 1569 1568 1568 1567 1566 1565 1564 1563 1562 1561 1559 1558 1556 1554 1552 1550 1548 1546 1545 1543 1541 1541 1540 1539 1538 1536 1534 1533 1531 1528 1525
1570 1571 1571 1572 1572 1572 1571 1571 1571 1570 1570 1569 1569 1568 1568 1567 1566 1565 1564 1563 1561 1560 1558 1557 1555 1552 1550 1548 1546 1545 1543 1542 1542 1541 1539 1538 1536 1535 1534 1532 1529 1525
1570 1571 1571 1572 1572 1572 1572 1571 1571 1570 1570 1570 1569 1569 1568 1567 1567 1566 1564 1563 1562 1560 1559 1557 1555 1553 1550 1548 1546 1544 1543 1542 1542 1541 1540 1539 1537 1535 1534 1532 1529 1525
1571 1571 1572 1572 1572 1572 1572 1571 1571 1571 1570 1570 1570 1569 1569 1568 1567 1566 1565 1564 1562 1561 1559 1558 1556 1553 1551 1549 1547 1545 1543 1542 1542 1541 1540 1539 1537 1536 1534 1531 1528 1524
1571 1571 1572 1572 1572 1572 1572 1572 1571 1571 1571 1571 1571 1570 1570 1569 1568 1567 1566 1564 1563 1561 1560 1558 1557 1555 1552 1550 1548 1546 1543 1543 1543 1541 1540 1539 1538 1536 1534 1531 1527 1524
1570 1571 1571 1572 1572 1572 1572 1572 1572 1572 1571 1571 1571 1571 1571 1570 1569 1568 1567 1565 1564 1562 1561 1559 1558 1556 1553 1551 1549 1547 1545 1543 1543 1541 1539 1538 1538 1536 1534 1530 1527 1524